SK0BO-13 Weather Reports


time (UTC)temp
C
wind
direction
speed
KPH
gust
KPH
rain 1hr
cm
rain 24hr
cm
rain mn
cm
humidity
%
barometer
mb
20260503015243 16 193 4.8 4.8 0.00 0.00 0.00 12 990.7
20260503011042 16 192 4.8 4.8 0.00 0.00 0.00 10 990.7
20260503002842 16 191 4.8 4.8 0.00 0.00 0.00 12 990.7
20260502234642 17 193 4.8 4.8 0.00 0.00 0.00 11 990.3
20260502230442 17 193 4.8 4.8 0.00 0.00 0.00 9 990.6
20260502222243 19 196 3.2 4.8 0.00 0.00 0.00 6 990.7
20260502214041 20 196 3.2 4.8 0.00 0.00 0.00 5 990.7
20260502205841 21 196 3.2 4.8 0.00 0.00 0.00 3 990.7
20260502201643 20 195 3.2 4.8 0.00 0.00 0.00 3 990.7
20260502193441 20 197 4.8 4.8 0.00 0.00 0.00 4 990.7
20260502185241 22 202 3.2 4.8 0.00 0.00 0.00 990.7
20260502181041 26 209 3.2 3.2 0.00 0.00 0.00 990.4
20260502160441 40 190 1.6 3.2 0.00 0.00 0.00 991.6
20260502152243 41 189 1.6 4.8 0.00 0.00 0.00 991.7
20260502123441 41 187 1.6 3.2 0.00 0.00 0.00 994.7
20260502115239 40 181 1.6 1.6 0.00 0.00 0.00 995.1
20260502111039 40 190 1.6 1.6 0.00 0.00 0.00 995.7
20260502102839 39 185 1.6 1.6 0.00 0.00 0.00 995.8
20260502090439 35 180 1.6 1.6 0.00 0.00 0.00 996.7
20260502065839 28 173 1.6 1.6 0.00 0.00 0.00 997.7
20260502061639 25 176 1.6 3.2 0.00 0.00 0.00 997.7
20260502053439 21 197 3.2 3.2 0.00 0.00 0.00 3 997.7
20260502045239 16 196 4.8 4.8 0.00 0.00 0.00 11 997.7
20260502041039 12 187 4.8 4.8 0.00 0.00 0.00 14 997.8
20260502032839 12 187 4.8 4.8 0.00 0.00 0.00 13 998.7
20260502024639 12 187 4.8 4.8 0.00 0.00 0.00 11 998.7